Temp
-8 -8 -7 -7 -6 -6 -6 -5 -5 -5 -5 -5 -5 -5 -5 -5 -5 -5 -5 -5 -5 -5 -5 -5 -5 -5 -5 -6 -6 -6 -6 -6 -6
-8 -8 -8 -7 -7 -6 -6 -6 -5 -5 -5 -5 -5 -5 -5 -5 -5 -5 -5 -5 -5 -5 -5 -5 -5 -5 -5 -5 -6 -6 -6 -6 -6
-8 -8 -8 -7 -7 -7 -6 -6 -6 -5 -5 -5 -5 -5 -5 -5 -5 -5 -5 -5 -5 -5 -5 -5 -5 -5 -5 -5 -5 -6 -6 -6 -6
-9 -9 -9 -8 -8 -7 -7 -6 -6 -6 -5 -5 -5 -5 -5 -5 -6 -5 -5 -5 -5 -5 -5 -5 -5 -5 -5 -5 -5 -5 -6 -6 -6
-9 -9 -9 -8 -8 -8 -7 -7 -7 -6 -6 -6 -6 -5 -5 -6 -6 -6 -6 -6 -6 -6 -5 -5 -5 -5 -5 -5 -5 -5 -6 -6 -6
-9 -9 -8 -8 -8 -8 -8 -7 -7 -7 -7 -7 -6 -6 -6 -6 -6 -6 -6 -6 -6 -6 -6 -6 -6 -6 -6 -6 -5 -5 -5 -6 -6
-9 -9 -9 -9 -9 -9 -8 -8 -8 -7 -7 -7 -7 -7 -7 -7 -7 -7 -6 -6 -7 -7 -6 -6 -6 -6 -6 -6 -6 -6 -5 -6 -6
-9 -9 -9 -9 -9 -9 -9 -8 -8 -8 -8 -8 -8 -7 -7 -7 -7 -7 -7 -7 -7 -7 -7 -7 -7 -6 -6 -6 -6 -6 -6 -6 -6
-10 -9 -9 -9 -9 -9 -9 -9 -9 -8 -8 -8 -8 -8 -7 -8 -8 -8 -7 -7 -7 -7 -7 -7 -7 -7 -7 -7 -7 -7 -7 -6 -6
-10 -10 -9 -9 -9 -9 -9 -9 -9 -9 -9 -8 -8 -8 -8 -8 -8 -8 -8 -8 -8 -8 -8 -8 -8 -7 -7 -7 -7 -7 -7 -7 -7
-10 -10 -10 -9 -10 -9 -9 -9 -9 -9 -9 -9 -8 -8 -8 -8 -8 -8 -8 -8 -8 -8 -8 -8 -8 -8 -7 -7 -7 -8 -8 -8 -8
-11 -10 -10 -10 -10 -10 -10 -9 -9 -9 -9 -9 -8 -8 -8 -8 -8 -8 -8 -9 -9 -9 -9 -9 -9 -9 -8 -8 -8 -8 -8 -8 -8
-11 -11 -10 -11 -11 -11 -11 -10 -9 -9 -9 -9 -9 -9 -9 -8 -8 -9 -9 -9 -9 -9 -9 -9 -9 -9 -9 -9 -8 -8 -8 -8 -8
-12 -12 -11 -11 -11 -11 -11 -11 -11 -10 -10 -10 -10 -10 -9 -9 -9 -9 -9 -9 -9 -10 -10 -9 -10 -10 -10 -10 -9 -9 -9 -9 -9
-12 -12 -12 -12 -11 -11 -11 -11 -11 -11 -11 -10 -11 -11 -10 -10 -10 -9 -9 -9 -10 -10 -10 -10 -10 -10 -10 -10 -10 -9 -9 -9 -10
-14 -13 -12 -12 -12 -12 -11 -11 -11 -12 -12 -11 -11 -11 -11 -11 -10 -10 -10 -10 -10 -10 -10 -10 -10 -10 -10 -10 -10 -10 -10 -10 -10
-14 -13 -13 -13 -13 -13 -13 -12 -12 -12 -12 -12 -12 -11 -11 -11 -11 -11 -11 -11 -10 -10 -11 -11 -11 -11 -11 -11 -11 -10 -10 -10 -11
-14 -14 -14 -14 -14 -14 -13 -12 -12 -13 -13 -13 -13 -12 -12 -12 -11 -11 -11 -11 -11 -11 -11 -11 -11 -11 -11 -11 -11 -11 -11 -10 -11
-14 -15 -14 -14 -14 -14 -14 -13 -13 -12 -12 -12 -13 -13 -12 -12 -12 -12 -11 -11 -11 -12 -11 -11 -12 -12 -12 -12 -12 -12 -12 -11 -11
-15 -15 -15 -15 -15 -14 -14 -14 -14 -14 -14 -14 -13 -13 -13 -13 -12 -12 -12 -12 -12 -12 -12 -11 -11 -12 -12 -12 -12 -12 -11 -11 -11
Height
5858 5861 5863 5864 5867 5869 5871 5873 5875 5876 5878 5878 5879 5880 5882 5882 5883 5883 5882 5882 5881 5881 5880 5879 5878 5876 5875 5873 5871 5870 5869 5868 5865
5855 5858 5861 5862 5864 5866 5869 5871 5873 5875 5876 5878 5879 5880 5881 5882 5882 5883 5883 5883 5883 5882 5881 5880 5879 5877 5876 5875 5874 5872 5870 5869 5867
5850 5854 5857 5860 5861 5864 5866 5869 5871 5873 5875 5876 5878 5878 5879 5881 5881 5882 5883 5883 5883 5882 5882 5881 5880 5879 5877 5876 5875 5874 5873 5871 5869
5847 5849 5852 5855 5858 5860 5862 5866 5868 5870 5872 5874 5876 5877 5879 5880 5881 5882 5882 5882 5883 5883 5883 5882 5881 5879 5878 5877 5876 5875 5874 5873 5871
5841 5844 5846 5851 5855 5857 5858 5861 5864 5866 5868 5871 5873 5874 5876 5878 5880 5881 5882 5882 5882 5882 5882 5882 5881 5880 5879 5878 5877 5875 5874 5873 5872
5836 5839 5843 5846 5850 5854 5855 5856 5859 5862 5864 5867 5869 5871 5874 5874 5877 5879 5881 5882 5882 5881 5881 5881 5881 5881 5879 5878 5877 5876 5875 5874 5873
5831 5834 5838 5841 5844 5847 5851 5852 5854 5856 5859 5862 5865 5868 5870 5871 5874 5876 5878 5879 5880 5880 5880 5880 5880 5880 5879 5878 5877 5876 5875 5874 5872
5824 5827 5831 5834 5839 5842 5843 5847 5850 5853 5854 5858 5861 5864 5866 5867 5870 5872 5874 5875 5877 5878 5878 5878 5878 5878 5878 5878 5877 5875 5874 5873 5872
5817 5821 5824 5826 5831 5834 5839 5843 5845 5848 5851 5853 5856 5860 5863 5865 5867 5868 5870 5872 5873 5874 5875 5876 5875 5875 5875 5875 5875 5874 5873 5872 5872
5807 5811 5815 5819 5823 5826 5830 5835 5839 5842 5845 5849 5851 5856 5857 5861 5860 5864 5867 5868 5869 5870 5871 5872 5872 5872 5872 5872 5873 5872 5872 5871 5870
5797 5801 5807 5812 5815 5819 5823 5827 5831 5834 5840 5843 5845 5848 5852 5854 5855 5857 5860 5862 5865 5866 5868 5868 5869 5869 5869 5869 5869 5869 5869 5869 5868
5785 5788 5794 5800 5806 5810 5815 5819 5823 5826 5831 5836 5839 5841 5845 5848 5851 5851 5852 5855 5859 5861 5863 5864 5865 5865 5865 5865 5865 5865 5865 5865 5865
5778 5781 5786 5791 5797 5801 5806 5811 5814 5819 5822 5827 5831 5833 5835 5839 5843 5846 5846 5848 5851 5854 5856 5858 5860 5860 5861 5861 5861 5861 5861 5861 5861
5770 5774 5778 5783 5786 5791 5796 5801 5804 5810 5814 5818 5822 5825 5827 5830 5834 5837 5840 5841 5843 5847 5849 5851 5852 5854 5856 5857 5856 5856 5855 5856 5857
5760 5765 5769 5772 5776 5782 5786 5791 5794 5799 5804 5807 5812 5816 5820 5822 5826 5829 5831 5834 5836 5838 5841 5844 5846 5847 5848 5850 5851 5851 5851 5851 5852
5752 5756 5759 5762 5767 5773 5776 5780 5781 5788 5792 5796 5801 5804 5808 5812 5815 5819 5822 5824 5828 5830 5832 5836 5838 5840 5841 5842 5843 5844 5845 5845 5846
5741 5746 5749 5753 5758 5763 5767 5771 5770 5775 5781 5788 5789 5792 5797 5802 5805 5808 5813 5815 5818 5821 5824 5827 5828 5831 5833 5834 5835 5836 5836 5838 5839
5728 5733 5737 5741 5748 5753 5758 5761 5764 5766 5770 5775 5778 5780 5785 5790 5793 5797 5801 5805 5808 5811 5814 5817 5819 5821 5824 5825 5826 5828 5827 5829 5830
5718 5722 5727 5732 5740 5747 5749 5752 5755 5756 5759 5763 5769 5771 5774 5778 5784 5786 5789 5793 5796 5800 5803 5805 5809 5811 5813 5815 5816 5818 5818 5818 5820
5707 5713 5716 5721 5728 5735 5739 5742 5745 5748 5748 5752 5755 5763 5764 5767 5770 5774 5777 5780 5785 5788 5790 5793 5796 5800 5802 5803 5805 5807 5808 5808 5810
Wind_Speed
24 23 21 19 16 17 15 13 12 11 11 10 11 11 10 7 4 2 3 6 9 12 14 16 18 21 23 25 23 24 25 26 25
28 26 23 22 21 19 18 17 15 13 12 12 12 13 11 8 5 3 1 3 6 9 11 12 15 17 20 23 24 24 24 25 26
32 30 28 25 24 22 21 20 18 15 14 14 15 15 14 11 8 5 4 2 2 5 7 9 10 13 17 19 20 21 24 24 25
32 32 30 29 28 26 24 21 20 19 18 16 15 16 16 13 11 8 6 5 3 2 5 6 8 10 12 15 18 19 20 22 25
35 35 32 31 30 29 29 26 24 22 22 21 20 19 19 18 14 11 9 8 7 3 4 5 7 9 11 12 14 17 18 20 21
38 37 34 33 33 33 32 31 29 26 25 23 23 22 21 21 18 14 12 11 11 8 5 5 7 8 9 10 11 13 15 17 17
42 40 37 35 34 35 34 33 32 31 28 25 25 24 23 23 21 18 14 14 14 11 10 8 8 9 9 10 11 11 13 15 16
44 42 40 39 37 34 35 36 33 32 31 28 26 26 26 27 25 23 19 17 17 15 14 12 11 11 11 11 12 12 12 13 15
48 43 44 43 42 41 37 35 35 33 32 29 29 28 29 28 27 26 22 20 20 19 19 17 15 14 13 13 13 14 13 13 14
52 49 47 45 46 45 43 41 39 36 36 34 31 31 32 30 31 29 26 24 23 23 22 20 19 17 16 16 15 14 14 15 15
50 54 52 50 47 45 44 42 41 40 38 38 36 35 36 36 35 32 30 29 27 26 25 24 22 20 19 20 19 18 18 17 17
53 56 58 54 50 48 48 47 44 43 40 40 38 37 37 37 36 36 35 33 31 30 29 28 26 25 24 23 24 22 22 20 19
47 55 53 54 57 56 53 51 50 47 44 43 42 42 42 42 42 41 40 38 36 34 33 31 30 29 27 26 25 27 26 25 23
45 45 40 46 51 53 51 52 52 51 48 46 46 47 47 47 47 46 44 42 40 39 37 36 34 32 30 30 29 29 29 29 28
41 46 37 42 40 50 55 50 51 51 50 52 51 50 49 50 51 50 48 48 46 44 41 39 38 36 33 33 30 31 33 32 32
51 39 40 35 37 40 51 50 58 57 55 55 50 50 52 54 54 55 54 51 51 47 44 43 42 40 38 37 35 33 34 35 34
52 45 37 41 38 39 38 50 48 49 47 51 55 62 60 59 55 57 55 54 54 51 47 44 44 44 42 40 38 35 36 36 34
56 55 48 44 47 60 54 51 44 42 39 38 37 48 55 54 55 59 59 53 52 50 50 48 47 46 45 44 40 40 40 39 36
63 56 53 49 47 54 53 56 58 61 58 45 51 39 54 61 62 59 56 57 56 56 56 54 51 51 48 48 45 44 42 44 42
61 62 58 57 54 54 52 52 55 53 64 65 66 44 40 42 54 58 62 63 61 59 55 53 55 54 50 47 48 45 42 41 46
Wind_Direction
221 223 217 210 209 209 210 203 205 205 204 190 171 162 155 142 131 99 50 32 34 33 26 24 25 23 21 21 26 34 38 39 40
224 222 221 216 213 213 212 212 210 212 210 206 194 181 175 176 181 174 153 6 25 30 26 19 18 21 20 19 18 22 30 36 36
229 226 223 221 218 215 216 216 214 215 217 213 208 197 191 197 201 205 207 241 3 16 20 15 16 14 16 15 17 14 16 23 32
235 230 226 222 219 218 219 221 221 218 220 221 217 212 206 206 212 216 223 234 249 329 352 359 5 7 7 11 8 11 11 15 19
234 234 232 229 223 222 220 222 225 223 223 223 220 217 214 218 219 223 235 241 235 255 308 328 339 355 359 0 0 358 5 3 12
233 233 234 234 229 228 225 223 224 229 228 227 226 223 218 220 222 223 237 247 238 240 258 293 311 326 344 352 350 347 348 355 359
233 233 232 232 233 229 230 229 227 227 230 231 230 229 225 226 226 226 232 238 240 250 257 266 286 296 312 334 342 341 337 340 347
233 233 231 231 232 232 232 232 232 233 231 234 235 232 228 229 228 229 231 235 239 252 263 262 269 286 293 304 325 332 328 328 331
233 233 231 232 231 233 235 236 237 239 241 240 242 238 236 234 231 231 231 232 238 249 257 259 258 268 281 288 298 317 322 320 320
231 232 234 233 232 234 235 237 240 241 244 244 243 245 242 232 233 235 236 238 241 250 254 254 255 261 273 277 282 294 310 313 313
236 233 232 234 234 236 236 237 238 242 244 245 243 240 240 237 235 231 234 241 247 253 256 256 254 260 265 271 274 278 287 301 304
225 229 230 231 233 234 237 240 240 239 238 243 244 242 240 239 236 234 236 241 245 250 253 256 256 259 264 270 271 273 278 285 297
235 236 236 236 236 235 240 240 241 243 241 239 242 239 241 243 242 240 240 241 245 249 251 252 254 258 263 270 270 274 277 281 286
237 225 231 240 241 236 232 237 243 244 242 244 244 246 243 242 245 242 244 245 246 251 251 251 252 255 260 265 270 272 273 278 283
253 230 243 237 238 233 241 242 243 240 241 243 243 244 246 246 247 244 245 248 247 250 251 252 253 255 257 261 265 269 269 276 281
256 248 246 242 236 244 238 235 239 243 243 241 239 241 245 246 247 249 251 250 253 251 252 253 253 257 258 262 265 262 262 268 276
243 231 225 238 234 233 239 236 230 232 244 242 252 249 248 245 245 250 251 254 254 254 253 253 255 257 260 261 262 261 261 263 268
242 242 249 248 261 270 261 238 245 232 228 245 274 252 246 247 249 249 246 249 253 255 257 256 256 258 259 261 259 260 262 260 262
247 254 254 254 256 251 256 266 269 258 261 253 272 251 245 242 246 251 243 254 251 251 256 256 256 257 260 258 258 260 263 260 257
246 249 255 259 259 256 257 259 265 268 270 275 281 258 245 244 244 247 250 252 251 255 256 255 256 260 259 260 261 258 259 265 257